Location: Fredericksburg
(30.2750°N, 98.8720°W)
Time: 07:45:26
(UTC-06:00)

Amateur Radio Satellites - All Passes

Search period start: 11 December 2016 07:15
Search period end: 12 December 2016 07:15
Location: Fredericksburg, 30.2750°N, 98.8720°W

Satellite Date Start Highest point End Downlink Frequencies (MHz)
Time Altitude Azimuth
AIST 2 11 Dec 07:15:48 07:19:37 38° 301° (WNW) 07:23:30 435.215
Cosmos 2491 11 Dec 07:19:10 07:27:53 69° 277° (W) 07:36:37 435.465 / 435.565
NOAA 18 11 Dec 07:20:15 07:25:47 89° 107° (ESE) 07:31:16 137.9125
HO-68 11 Dec 07:24:54 07:30:53 28° 97° (E) 07:36:49 435.675
CINEMA 3 11 Dec 07:25:46 07:29:57 34° 97° (E) 07:33:55 145.822/145.860
CUTE 1.7 + AOD 2 11 Dec 07:30:19 07:33:29 20° 96° (E) 07:36:39 437.475
CANX-2 11 Dec 07:48:50 07:52:51 42° 99° (E) 07:56:52 2200.000
COMPASS 1 11 Dec 08:01:51 08:04:59 20° 96° (E) 08:08:07 437.405
SEEDS 11 Dec 08:02:07 08:05:55 33° 98° (E) 08:09:43 437.485
CUTE-I 11 Dec 08:03:29 08:07:15 20° 292° (WNW) 08:10:59 437.470
NOAA 15 11 Dec 08:07:36 08:10:48 16° 293° (WNW) 08:14:00 137.62
JUGNU 11 Dec 08:11:09 08:15:10 19° 165° (SSE) 08:19:12 437.505
STRAND 1 11 Dec 08:15:36 08:19:33 22° 264° (W) 08:23:30 437.568
Cosmos 2504 11 Dec 08:17:09 08:24:39 36° 274° (W) 08:31:42 435.465 / 435.565
RS-15 11 Dec 08:18:39 08:29:24 40° 308° (NW) 08:40:42 29.354- 29.394
DOVE 4 11 Dec 08:29:36 08:31:07 11° 295° (WNW) 08:32:36 437.250
Oscar 11 11 Dec 08:31:38 08:33:21 12° 94° (E) 08:35:04 145.826/435.025
Cubesat XI-IV 11 Dec 08:34:10 08:34:50 10° 296° (WNW) 08:35:31 437.490
CUBEBUG 2 11 Dec 08:40:45 08:44:57 56° 100° (E) 08:49:01 437.445
PRISM 11 Dec 08:58:48 09:02:48 66° 77° (ENE) 09:06:52 437.425
AAUSAT CUBESAT 2 11 Dec 09:00:01 09:04:11 90° 300° (WNW) 09:08:21 437.432
CINEMA 3 11 Dec 09:03:51 09:06:43 17° 292° (WNW) 09:09:30 145.822/145.860
CUTE 1.7 + AOD 2 11 Dec 09:05:50 09:09:11 23° 288° (WNW) 09:12:33 437.475
DELFI C3 11 Dec 09:10:18 09:10:44 10° 93° (E) 09:11:10 145.870
UWE-3 11 Dec 09:10:40 09:14:52 83° 102° (ESE) 09:19:00 435.000/436.395/437.385
HO-68 11 Dec 09:11:53 09:18:36 44° 291° (WNW) 09:25:19 435.675
CANX-2 11 Dec 09:26:47 09:28:17 12° 291° (WNW) 09:29:47 2200.000
COMPASS 1 11 Dec 09:37:07 09:40:23 23° 288° (WNW) 09:43:40 437.405
ZACube-1 11 Dec 09:38:18 09:42:27 77° 283° (WNW) 09:46:34 437.345
SEEDS 11 Dec 09:38:58 09:41:17 15° 290° (WNW) 09:43:36 437.485
FUNcube-1 11 Dec 09:42:31 09:46:39 75° 283° (WNW) 09:50:44 145.935
UNISAT 6 11 Dec 09:43:08 09:47:34 44° 74° (ENE) 09:51:57 437.425
CUSAT 1 11 Dec 09:44:32 09:46:41 18° 279° (W) 09:48:39 437.405
DANDE 11 Dec 09:44:33 09:49:02 56° 98° (E) 09:52:27 436.750
PCSat 11 Dec 09:47:00 09:51:58 39° 109° (ESE) 09:56:58 145.827
JUGNU 11 Dec 09:58:37 10:03:40 29° 175° (S) 10:08:44 437.505
SRMSAT 11 Dec 10:02:02 10:05:11 15° 163° (SSE) 10:08:21 437.500
Oscar 11 11 Dec 10:05:34 10:09:35 40° 286° (WNW) 10:13:35 145.826/435.025
TIGRISAT 11 Dec 10:10:55 10:15:36 87° 79° (E) 10:20:15 435.000
HUMSAT D 11 Dec 10:13:49 10:17:34 35° 99° (E) 10:21:20 437.325/437.525
ANTELSAT 11 Dec 10:14:00 10:18:41 81° 259° (WSW) 10:23:19 437.575/2403.000
NANOSAT C BR1 11 Dec 10:41:08 10:43:42 16° 70° (ENE) 10:46:16 145.865
DELFI C3 11 Dec 10:41:53 10:45:38 40° 285° (WNW) 10:49:23 145.870
RS-15 11 Dec 10:43:49 10:46:51 11° 339° (NNW) 10:49:53 29.354- 29.394
AO-85 11 Dec 10:49:20 10:53:09 57° 245° (WSW) 10:56:57 145.980
QB50P2 11 Dec 10:51:53 10:55:23 25° 72° (ENE) 10:58:54 145.880/145.840
POLYITAN 1 11 Dec 10:52:19 10:55:45 24° 72° (ENE) 10:59:12 437.675
Cosmos 2499 11 Dec 10:58:35 11:05:46 32° 75° (ENE) 11:12:28 435.465 / 435.565
DUCHIFAT 1 11 Dec 10:59:13 11:02:37 24° 72° (ENE) 11:06:02 145.980
QB50P1 11 Dec 11:02:57 11:06:45 32° 73° (ENE) 11:10:32 145.935-145.965
JAS-2 11 Dec 11:11:08 11:17:35 76° 76° (ENE) 11:23:18 435.910
CUBEBUG 1 11 Dec 11:20:32 11:23:02 15° 95° (E) 11:25:32 437.445
UNISAT 6 11 Dec 11:22:06 11:24:21 13° 266° (W) 11:26:37 437.425
POPSAT HIP 1 11 Dec 11:24:37 11:28:49 60° 76° (ENE) 11:33:02 437.405
ESTCUBE 1 11 Dec 11:28:07 11:32:13 33° 98° (E) 11:36:18 437.505/2401.250
PCSat 11 Dec 11:31:16 11:35:25 22° 303° (WNW) 11:39:36 145.827
BUGSAT 1 11 Dec 11:31:45 11:34:54 21° 71° (ENE) 11:38:04 437.445
GONETS M04 11 Dec 11:35:14 11:43:45 55° 81° (E) 11:52:16
VELOX 1 11 Dec 11:46:21 11:49:35 19° 96° (E) 11:52:47 145.980
JUGNU 11 Dec 11:47:10 11:52:14 29° 185° (S) 11:57:19 437.505
SRMSAT 11 Dec 11:48:57 11:53:49 26° 171° (S) 11:58:39 437.500
HUMSAT D 11 Dec 11:51:03 11:52:49 13° 291° (WNW) 11:54:35 437.325/437.525
NANOSAT C BR1 11 Dec 12:15:18 12:19:06 31° 262° (W) 12:22:55 145.865
QB50P2 11 Dec 12:27:59 12:31:05 19° 264° (W) 12:34:12 145.880/145.840
POLYITAN 1 11 Dec 12:28:12 12:31:25 21° 264° (W) 12:34:39 437.675
DUCHIFAT 1 11 Dec 12:35:01 12:38:11 20° 264° (W) 12:41:22 145.980
QB50P1 11 Dec 12:39:59 12:42:30 15° 265° (W) 12:45:02 145.935-145.965
AISAT 11 Dec 12:45:09 12:49:36 72° 284° (WNW) 12:54:01 437.250
Cosmos 2499 11 Dec 12:51:22 12:58:51 40° 273° (W) 13:05:49 435.465 / 435.565
CUBEBUG 1 11 Dec 12:55:19 12:59:21 35° 287° (WNW) 13:03:21 437.445
ISS 11 Dec 12:56:45 12:59:08 19° 127° (SE) 13:01:33 145.825
Oscar 19 11 Dec 12:58:33 13:03:27 48° 73° (ENE) 13:08:22 437.125/150
JAS-2 11 Dec 13:01:07 13:02:48 11° 265° (W) 13:04:25 435.910
50 SAT 11 Dec 13:04:18 13:07:39 40° 285° (WNW) 13:11:01 437.505
ESTCUBE 1 11 Dec 13:05:48 13:08:42 17° 291° (WNW) 13:11:37 437.505/2401.250
RS-15 11 Dec 13:06:18 13:08:27 10° 20° (NNE) 13:10:34 29.354- 29.394
BUGSAT 1 11 Dec 13:06:40 13:10:04 24° 263° (W) 13:13:30 437.445
SPROUT 11 Dec 13:09:27 13:13:38 57° 285° (WNW) 13:17:48 437.525
UKube-1 11 Dec 13:09:33 13:13:53 73° 103° (ESE) 13:18:10 .
DX 1 11 Dec 13:14:33 13:18:55 69° 284° (WNW) 13:23:15 434.975-435.025
BEESAT 3 11 Dec 13:15:57 13:19:54 62° 62° (ENE) 13:23:49 437.485
VELOX 1 11 Dec 13:22:11 13:25:57 28° 288° (WNW) 13:29:43 145.980
GONETS M04 11 Dec 13:33:16 13:39:55 25° 276° (W) 13:46:37
JUGNU 11 Dec 13:36:36 13:40:45 19° 194° (SSW) 13:44:53 437.505
SRMSAT 11 Dec 13:37:23 13:42:31 30° 181° (S) 13:47:38 437.500
Gurwin Techsat 1B 11 Dec 13:43:05 13:48:20 68° 75° (ENE) 13:53:38 435.225
ITAMSAT 1 11 Dec 13:43:30 13:45:35 12° 65° (ENE) 13:47:39 435.822/435.867
BEESAT 2 11 Dec 13:58:14 14:02:17 85° 67° (ENE) 14:06:17 435.950
TISAT 1 11 Dec 14:09:24 14:13:36 83° 283° (WNW) 14:17:46 437.305
ITUPSAT 1 11 Dec 14:21:47 14:25:15 20° 96° (E) 14:28:41 437.325
AO-7 11 Dec 14:23:04 14:30:09 33° 64° (ENE) 14:37:16 29.400- 29.500
M-CUBED/EXP-1 PRIME 11 Dec 14:25:16 14:28:06 17° 98° (E) 14:30:49 437.505
ISS 11 Dec 14:32:43 14:35:29 25° 320° (NW) 14:38:17 145.825
Oscar 19 11 Dec 14:40:10 14:42:56 15° 266° (W) 14:45:42 437.125/150
RS-15 11 Dec 15:14:59 15:26:11 38° 51° (NE) 15:36:58 29.354- 29.394
ITAMSAT 1 11 Dec 15:19:18 15:24:26 62° 258° (WSW) 15:29:37 435.822/435.867
O/OREOS (USA 219) 11 Dec 15:21:42 15:26:11 55° 290° (WNW) 15:30:39 437.305
SWISSCUBE 11 Dec 15:23:09 15:27:52 67° 285° (WNW) 15:32:34 437.505
BEESAT 11 Dec 15:26:30 15:31:14 70° 285° (WNW) 15:35:57 436.000
SRMSAT 11 Dec 15:26:37 15:31:12 23° 191° (S) 15:35:46 437.500
Gurwin Techsat 1B 11 Dec 15:27:42 15:28:37 10° 267° (W) 15:29:32 435.225
MOZHAYETS 4 11 Dec 15:38:00 15:42:06 33° 98° (E) 15:46:12
AUBIESAT-1 11 Dec 15:40:35 15:44:59 70° 289° (WNW) 15:49:06 437.475
AIST 2 11 Dec 15:42:37 15:46:01 23° 56° (NE) 15:49:24 435.215
BRITE-PL 11 Dec 15:54:39 15:54:59 10° 65° (ENE) 15:55:21 437.365/2234.400
M-CUBED/EXP-1 PRIME 11 Dec 15:58:32 16:02:36 34° 292° (WNW) 16:06:27 437.505
ITUPSAT 1 11 Dec 15:58:52 16:03:01 31° 289° (WNW) 16:07:10 437.325
AO-7 11 Dec 16:14:43 16:22:33 46° 258° (WSW) 16:30:28 29.400- 29.500
GOMX 1 11 Dec 16:34:45 16:36:50 13° 66° (ENE) 16:38:58 467.674
STARS 11 Dec 16:48:08 16:52:07 33° 99° (E) 16:56:04 437.465
KKS-1 11 Dec 16:59:19 17:03:46 71° 284° (WNW) 17:08:11 437.445
HORYU 2 11 Dec 17:05:15 17:09:38 58° 75° (ENE) 17:14:02 437.375
MOZHAYETS 4 11 Dec 17:15:59 17:18:57 17° 290° (WNW) 17:21:56
SRMSAT 11 Dec 17:17:51 17:19:47 12° 199° (SSW) 17:21:43 437.500
AIST 2 11 Dec 17:21:00 17:24:21 23° 250° (WSW) 17:27:42 435.215
RS-15 11 Dec 17:27:13 17:39:04 58° 250° (WSW) 17:50:26 29.354- 29.394
BRITE-PL 11 Dec 17:28:35 17:32:48 54° 260° (W) 17:37:21 437.365/2234.400
CUBESAT XI-V 11 Dec 17:34:07 17:38:48 88° 287° (WNW) 17:43:31 437.345
SO-50 11 Dec 17:35:33 17:38:37 17° 109° (ESE) 17:41:42 436.795
Cosmos 2491 11 Dec 17:36:55 17:45:13 46° 79° (E) 17:53:28 435.465 / 435.565
CUTE-I 11 Dec 17:38:43 17:43:36 37° 72° (ENE) 17:48:30 437.470
NOAA 15 11 Dec 17:40:50 17:45:44 43° 73° (ENE) 17:50:40 137.62
DOVE 4 11 Dec 17:48:15 17:52:37 34° 72° (ENE) 17:57:12 437.250
LilacSat-2 11 Dec 17:50:01 17:53:41 45° 76° (ENE) 17:57:21 437.200
HO-68 11 Dec 17:52:06 17:53:43 11° 58° (ENE) 17:55:20 435.675
YUBILEINY 11 Dec 17:55:17 18:02:30 31° 86° (E) 18:09:46 435.215
Cubesat XI-IV 11 Dec 18:06:14 18:11:35 71° 75° (ENE) 18:16:56 437.490
GOMX 1 11 Dec 18:09:50 18:14:17 51° 261° (W) 18:19:06 467.674
CINEMA 3 11 Dec 18:21:47 18:25:12 19° 69° (ENE) 18:28:38 145.822/145.860
STARS 11 Dec 18:25:28 18:28:08 16° 291° (WNW) 18:30:47 437.465
CANX-2 11 Dec 18:37:22 18:39:44 15° 70° (ENE) 18:42:06 2200.000
NOAA 18 11 Dec 18:40:37 18:46:09 85° 256° (WSW) 18:51:45 137.9125
PCSat 11 Dec 18:44:07 18:44:39 10° 50° (NE) 18:45:11 145.827
SEEDS 11 Dec 18:50:32 18:51:49 11° 68° (ENE) 18:53:05 437.485
STRAND 1 11 Dec 18:53:03 18:56:20 17° 95° (E) 18:59:36 437.568
Cosmos 2504 11 Dec 18:53:47 19:01:14 37° 87° (E) 19:09:01 435.465 / 435.565
SO-50 11 Dec 19:14:18 19:18:47 39° 301° (WNW) 19:23:13 436.795
CUTE-I 11 Dec 19:19:43 19:23:39 21° 264° (W) 19:27:37 437.470
AIST 1 11 Dec 19:20:24 19:24:40 69° 95° (E) 19:29:00
NOAA 15 11 Dec 19:22:18 19:25:37 17° 265° (W) 19:28:57 137.62
DOVE 4 11 Dec 19:26:51 19:30:19 20° 266° (W) 19:33:57 437.250
CUBEBUG 2 11 Dec 19:32:57 19:36:50 26° 72° (ENE) 19:40:42 437.445
HO-68 11 Dec 19:33:07 19:40:15 78° 73° (ENE) 19:47:26 435.675
Cosmos 2491 11 Dec 19:34:25 19:41:35 30° 274° (W) 19:48:47 435.465 / 435.565
AAUSAT CUBESAT 2 11 Dec 19:44:50 19:48:15 26° 73° (ENE) 19:51:40 437.432
YUBILEINY 11 Dec 19:50:40 19:58:52 45° 281° (W) 20:07:10 435.215
CUTE 1.7 + AOD 2 11 Dec 19:51:37 19:55:48 71° 259° (W) 20:00:00 437.475
Cubesat XI-IV 11 Dec 19:51:49 19:51:59 10° 267° (W) 19:52:10 437.490
PHONESAT 2.4 11 Dec 19:55:28 19:56:25 11° 141° (SE) 19:57:22 2401.200-2431.200
CINEMA 3 11 Dec 19:57:22 20:01:57 38° 262° (W) 20:06:36 145.822/145.860
UWE-3 11 Dec 20:01:31 20:05:40 33° 74° (ENE) 20:09:47 435.000/436.395/437.385
CANX-2 11 Dec 20:11:29 20:15:16 32° 262° (W) 20:19:03 2200.000
CUSAT 1 11 Dec 20:17:47 20:22:29 89° 84° (E) 20:28:42 437.405
COMPASS 1 11 Dec 20:20:56 20:25:01 74° 258° (WSW) 20:29:08 437.405
SEEDS 11 Dec 20:23:08 20:27:04 42° 261° (W) 20:31:01 437.485
PCSat 11 Dec 20:23:17 20:28:44 89° 65° (ENE) 20:34:08 145.827
DANDE 11 Dec 20:26:24 20:29:09 20° 83° (E) 20:32:26 436.750
ZACube-1 11 Dec 20:27:54 20:32:07 39° 74° (ENE) 20:36:16 437.345
STRAND 1 11 Dec 20:30:51 20:35:35 40° 287° (WNW) 20:40:18 437.568
FUNcube-1 11 Dec 20:31:48 20:36:01 40° 74° (ENE) 20:40:09 145.935
Cosmos 2504 11 Dec 20:46:43 20:54:23 39° 283° (WNW) 21:02:29 435.465 / 435.565
PRISM 11 Dec 20:47:17 20:49:35 14° 95° (E) 20:51:51 437.425
Oscar 11 11 Dec 20:53:55 20:58:12 71° 77° (ENE) 21:02:30 145.826/435.025
HUMSAT D 11 Dec 21:01:13 21:03:00 13° 69° (ENE) 21:04:47 437.325/437.525
ISS 11 Dec 21:04:59 21:07:32 20° 38° (NE) 21:10:05 145.825
CUBEBUG 2 11 Dec 21:09:29 21:13:18 24° 264° (W) 21:17:06 437.445
AAUSAT CUBESAT 2 11 Dec 21:21:00 21:23:39 17° 265° (W) 21:26:20 437.432
DELFI C3 11 Dec 21:21:26 21:25:11 46° 75° (ENE) 21:28:56 145.870
HO-68 11 Dec 21:25:04 21:28:29 14° 267° (W) 21:31:53 435.675
PHONESAT 2.4 11 Dec 21:28:40 21:31:17 56° 333° (NNW) 21:33:54 2401.200-2431.200
UWE-3 11 Dec 21:39:01 21:42:06 17° 265° (W) 21:45:09 435.000/436.395/437.385
UNISAT 6 11 Dec 21:42:28 21:44:30 13° 94° (E) 21:46:30 437.425
ZACube-1 11 Dec 22:06:06 22:08:26 14° 266° (W) 22:10:46 437.345
TIGRISAT 11 Dec 22:08:57 22:12:35 26° 97° (E) 22:16:09 435.000
DANDE 11 Dec 22:09:08 22:11:40 17° 263° (W) 22:14:38 436.750
FUNcube-1 11 Dec 22:10:03 22:12:18 14° 266° (W) 22:14:31 145.935
ANTELSAT 11 Dec 22:12:00 22:15:49 31° 98° (E) 22:19:35 437.575/2403.000
PRISM 11 Dec 22:21:09 22:24:52 32° 287° (WNW) 22:28:35 437.425
ESTCUBE 1 11 Dec 22:23:15 22:25:55 16° 69° (ENE) 22:28:35 437.505/2401.250
HUMSAT D 11 Dec 22:34:19 22:38:13 38° 261° (W) 22:42:07 437.325/437.525
ISS 11 Dec 22:41:12 22:43:59 25° 232° (SW) 22:46:46 145.825
PHONESAT 2.4 11 Dec 23:05:26 23:06:46 13° 347° (NNW) 23:08:06 2401.200-2431.200
POPSAT HIP 1 11 Dec 23:16:31 23:18:56 15° 95° (E) 23:21:20 437.405
UNISAT 6 11 Dec 23:17:21 23:21:18 36° 286° (WNW) 23:25:11 437.425
AO-85 11 Dec 23:19:14 23:21:58 15° 109° (ESE) 23:24:37 145.980
Cosmos 2499 11 Dec 23:26:45 23:34:01 32° 86° (E) 23:41:30 435.465 / 435.565
50 SAT 11 Dec 23:33:57 23:36:56 27° 74° (ENE) 23:39:57 437.505
AISAT 11 Dec 23:36:29 23:40:43 46° 74° (ENE) 23:44:59 437.250
CUBEBUG 1 11 Dec 23:44:44 23:49:06 89° 52° (NE) 23:53:30 437.445
TIGRISAT 11 Dec 23:46:05 23:49:02 18° 290° (WNW) 23:51:57 435.000
ANTELSAT 11 Dec 23:49:38 23:52:13 16° 291° (WNW) 23:54:48 437.575/2403.000
SPROUT 11 Dec 23:56:45 00:00:53 48° 75° (ENE) 00:05:02 437.525
ESTCUBE 1 11 Dec 23:58:18 00:02:22 35° 262° (W) 00:06:28 437.505/2401.250
UKube-1 11 Dec 23:58:37 00:02:18 28° 72° (ENE) 00:05:58 .
DX 1 12 Dec 00:04:08 00:08:17 46° 74° (ENE) 00:12:28 434.975-435.025
NANOSAT C BR1 12 Dec 00:04:49 00:08:58 61° 100° (E) 00:13:05 145.865
JAS-2 12 Dec 00:10:30 00:15:50 74° 284° (WNW) 00:21:43 435.910
VELOX 1 12 Dec 00:12:46 00:17:08 65° 259° (W) 00:21:32 145.980
QB50P2 12 Dec 00:17:12 00:21:25 77° 285° (WNW) 00:25:36 145.880/145.840
POLYITAN 1 12 Dec 00:17:32 00:21:45 82° 283° (WNW) 00:25:55 437.675
DUCHIFAT 1 12 Dec 00:23:28 00:27:40 83° 283° (WNW) 00:31:50 145.980
QB50P1 12 Dec 00:28:25 00:32:34 59° 284° (WNW) 00:36:41 145.935-145.965
GONETS M04 12 Dec 00:28:33 00:37:13 75° 94° (E) 00:45:53
POPSAT HIP 1 12 Dec 00:51:00 00:54:43 31° 287° (WNW) 00:58:25 437.405
BUGSAT 1 12 Dec 00:53:15 00:57:23 77° 102° (ESE) 01:01:26 437.445
TISAT 1 12 Dec 00:55:15 00:59:02 32° 73° (ENE) 01:02:49 437.305
AO-85 12 Dec 00:57:13 01:02:05 48° 299° (WNW) 01:06:37 145.980
50 SAT 12 Dec 01:09:16 01:10:13 11° 265° (W) 01:11:10 437.505
AISAT 12 Dec 01:16:06 01:17:20 11° 267° (W) 01:18:35 437.250
Oscar 19 12 Dec 01:16:16 01:20:40 27° 97° (E) 01:25:03 437.125/150
Cosmos 2499 12 Dec 01:18:35 01:26:43 46° 281° (W) 01:35:10 435.465 / 435.565
ITUPSAT 1 12 Dec 01:24:29 01:26:31 13° 67° (ENE) 01:28:34 437.325
UKube-1 12 Dec 01:35:21 01:38:17 18° 264° (W) 01:41:13 .
O/OREOS (USA 219) 12 Dec 01:37:24 01:41:52 77° 253° (WSW) 01:46:18 437.305
DX 1 12 Dec 01:43:40 01:44:37 11° 266° (W) 01:45:36 434.975-435.025
Gurwin Techsat 1B 12 Dec 02:05:20 02:10:23 43° 100° (E) 02:15:23 435.225
PHONESAT 2.4 12 Dec 02:16:16 02:18:24 21° 20° (NNE) 02:20:32 2401.200-2431.200
AUBIESAT-1 12 Dec 02:19:58 02:24:03 53° 70° (ENE) 02:28:24 437.475
SWISSCUBE 12 Dec 02:23:33 02:28:17 72° 76° (ENE) 02:33:01 437.505
BEESAT 12 Dec 02:26:51 02:31:35 69° 75° (ENE) 02:36:19 436.000
GONETS M04 12 Dec 02:29:23 02:34:45 18° 289° (WNW) 02:40:07
TISAT 1 12 Dec 02:32:16 02:34:41 15° 265° (W) 02:37:06 437.305
AO-7 12 Dec 02:33:50 02:37:07 13° 93° (E) 02:40:25 29.400- 29.500
MOZHAYETS 4 12 Dec 02:35:16 02:38:10 17° 69° (ENE) 02:41:03
M-CUBED/EXP-1 PRIME 12 Dec 02:38:00 02:42:07 70° 255° (WSW) 02:46:34 437.505
Oscar 19 12 Dec 02:55:31 02:59:50 27° 290° (WNW) 03:04:07 437.125/150
ITUPSAT 1 12 Dec 02:59:13 03:03:51 51° 259° (W) 03:08:30 437.325
BEESAT 3 12 Dec 03:00:38 03:04:16 41° 113° (ESE) 03:07:57 437.485
ITAMSAT 1 12 Dec 03:37:55 03:43:06 76° 103° (ESE) 03:48:14 435.822/435.867
STARS 12 Dec 03:40:17 03:42:53 15° 68° (ENE) 03:45:28 437.465
BEESAT 2 12 Dec 03:44:12 03:48:01 60° 115° (ESE) 03:51:56 435.950
Gurwin Techsat 1B 12 Dec 03:46:24 03:49:55 18° 293° (WNW) 03:53:26 435.225
PHONESAT 2.4 12 Dec 03:51:07 03:53:35 37° 214° (SW) 03:56:01 2401.200-2431.200
SO-50 12 Dec 03:51:07 03:55:17 36° 58° (ENE) 03:59:22 436.795
KKS-1 12 Dec 03:51:21 03:55:39 50° 74° (ENE) 03:59:59 437.445
MOZHAYETS 4 12 Dec 04:10:50 04:15:00 34° 262° (W) 04:19:10
AO-7 12 Dec 04:22:12 04:30:37 88° 105° (ESE) 04:39:00 29.400- 29.500
CUBESAT XI-V 12 Dec 04:31:37 04:35:57 44° 74° (ENE) 04:40:19 437.345
BEESAT 3 12 Dec 04:40:29 04:42:04 12° 308° (NW) 04:43:39 437.485
HORYU 2 12 Dec 05:03:00 05:05:54 17° 96° (E) 05:08:47 437.375
STARS 12 Dec 05:14:48 05:18:52 36° 261° (W) 05:22:57 437.465
RS-15 12 Dec 05:30:43 05:41:01 39° 106° (ESE) 05:51:44 29.354- 29.394
KKS-1 12 Dec 05:31:33 05:32:24 10° 267° (W) 05:33:14 437.445
SO-50 12 Dec 05:32:41 05:35:22 16° 252° (WSW) 05:38:02 436.795
AIST 2 12 Dec 05:35:11 05:37:57 18° 109° (ESE) 05:40:46 435.215
BRITE-PL 12 Dec 05:37:55 05:43:35 77° 101° (ESE) 05:49:15 437.365/2234.400
DOVE 4 12 Dec 05:54:19 05:57:22 16° 92° (E) 06:00:19 437.250
CUTE-I 12 Dec 06:02:02 06:06:14 24° 97° (E) 06:10:25 437.470
NOAA 15 12 Dec 06:02:06 06:06:30 26° 97° (E) 06:10:54 137.62
STRAND 1 12 Dec 06:04:13 06:06:55 15° 67° (ENE) 06:09:37 437.568
YUBILEINY 12 Dec 06:07:18 06:16:08 70° 83° (E) 06:24:54 435.215
CUBESAT XI-V 12 Dec 06:11:35 06:13:28 12° 267° (W) 06:15:22 437.345
GOMX 1 12 Dec 06:16:55 06:22:25 78° 101° (E) 06:27:43 467.674
AO-7 12 Dec 06:17:30 06:22:17 17° 303° (WNW) 06:27:04 29.400- 29.500
Cubesat XI-IV 12 Dec 06:29:33 06:34:38 46° 100° (E) 06:39:43 437.490
Cosmos 2491 12 Dec 06:30:15 06:38:53 65° 92° (E) 06:47:29 435.465 / 435.565
HORYU 2 12 Dec 06:38:33 06:42:25 30° 288° (WNW) 06:46:16 437.375
Cosmos 2504 12 Dec 06:46:10 06:54:37 61° 81° (E) 07:02:26 435.465 / 435.565
LilacSat-2 12 Dec 07:02:56 07:06:34 48° 284° (WNW) 07:10:11 437.200
